GEFSMW_con_probscp_090.txt.gz
Probability
8 10 11 11 12 12 10 12 14 12 10 9 6 4 2 0 0 0 0 0 0 0 0 0 0 0 0 0 0 0 0 0 0 0 0 0 0 0 0 0 0 0 0
6 8 10 11 12 13 11 11 12 11 10 9 7 5 2 1 0 0 0 0 0 0 0 0 0 0 0 0 0 0 0 0 0 0 0 0 0 0 0 0 0 0 0
3 5 7 9 10 11 10 10 11 12 11 10 7 5 3 1 0 0 0 0 0 0 0 0 0 0 0 0 0 0 0 0 0 0 0 0 0 0 0 0 0 0 0
1 2 4 5 6 8 10 11 12 13 12 9 7 4 3 2 1 0 0 0 0 0 0 0 1 1 0 0 0 0 0 0 0 0 0 0 0 0 0 0 0 0 0
0 0 2 3 4 6 9 11 12 12 10 9 6 4 3 3 2 1 0 0 0 0 1 1 2 2 1 1 1 1 0 0 0 0 0 0 0 0 0 0 0 0 0
0 0 1 3 3 5 7 10 11 10 10 9 7 5 4 4 4 2 1 1 0 1 2 3 3 3 3 2 2 2 1 0 0 0 0 0 0 0 0 0 0 0 0
0 1 3 5 5 6 9 12 12 11 10 9 8 6 6 6 5 3 3 2 2 2 3 3 3 3 3 3 3 2 1 0 0 0 0 0 0 0 0 0 0 0 0
0 2 4 6 6 8 12 14 14 12 10 9 8 7 6 6 4 3 3 3 3 3 3 3 3 3 3 3 3 2 1 1 0 0 0 0 0 0 0 0 0 0 0
1 2 4 6 6 7 11 14 13 12 10 9 8 8 7 6 4 3 3 3 3 3 3 3 3 3 3 3 3 2 2 2 1 0 0 0 0 0 0 0 0 0 0
0 1 4 6 6 6 9 11 11 10 9 9 8 9 9 8 5 3 3 3 3 4 4 4 3 3 3 3 2 1 2 2 1 0 0 0 0 0 0 0 0 0 0
0 1 3 5 5 4 6 8 10 9 9 10 10 11 13 12 8 4 3 3 4 5 5 5 4 3 3 3 3 1 1 1 2 1 1 2 1 1 1 1 0 0 1
1 1 2 4 5 5 5 7 9 9 10 12 15 17 18 16 12 8 6 5 4 4 5 5 4 3 3 3 3 2 1 1 2 3 3 3 3 2 2 2 1 1 1
2 2 2 4 6 7 7 7 9 10 12 16 20 23 25 24 20 15 12 10 8 6 5 5 4 3 3 3 3 3 1 1 3 3 3 3 3 4 4 4 3 2 2
2 2 2 4 5 7 7 8 10 12 15 19 24 29 34 33 28 24 19 15 13 11 7 5 4 3 3 3 3 3 3 3 3 3 3 3 4 5 5 5 5 5 4
4 4 4 5 6 8 10 12 14 17 20 24 28 34 38 36 32 28 22 17 14 12 10 7 4 4 3 3 3 3 3 3 3 3 3 3 3 4 4 4 4 5 5
6 8 10 12 15 16 18 22 25 29 33 35 36 38 38 35 31 28 23 18 14 12 12 9 5 5 4 2 1 1 2 3 4 4 4 4 3 2 2 2 1 2 4
11 14 19 24 28 28 29 30 34 40 46 47 45 41 38 35 31 27 23 19 16 14 13 11 7 6 4 2 0 0 1 3 4 6 6 5 4 4 3 2 1 2 2
17 22 28 33 36 37 36 36 38 42 47 50 49 45 41 38 34 29 24 21 19 17 16 14 11 9 6 2 0 0 0 1 3 5 6 7 6 5 4 4 4 4 5
22 26 32 37 41 41 41 42 42 42 45 48 48 44 40 37 33 29 25 23 20 18 16 14 14 13 9 3 0 0 0 0 2 4 4 5 5 3 2 4 6 8 9
24 26 31 36 39 40 43 44 41 40 42 43 41 36 32 30 29 28 28 24 19 16 14 13 14 16 13 6 1 0 0 0 1 3 3 2 2 1 0 2 5 8 8
20 22 26 29 29 31 36 37 33 30 30 30 28 24 20 18 20 25 28 24 18 15 13 14 15 18 16 8 1 0 0 0 0 2 3 2 1 0 0 1 2 4 4
15 16 18 18 17 17 22 25 23 18 16 16 15 14 11 9 11 17 21 21 18 14 12 12 14 17 16 8 2 0 0 0 0 1 2 2 1 0 0 0 0 0 0
11 11 10 9 7 6 8 12 12 10 8 8 9 9 8 7 8 10 14 16 15 11 8 9 10 13 13 9 4 1 0 0 0 0 1 1 0 0 0 0 0 0 0
6 6 6 5 3 2 2 4 4 5 5 6 7 8 8 9 10 12 12 13 12 10 9 9 9 11 13 10 6 2 1 1 1 1 1 0 0 0 0 0 0 1 1
3 3 4 4 3 2 2 2 1 2 3 3 4 6 6 7 9 10 11 9 9 8 8 8 8 9 9 7 3 1 1 1 2 2 1 0 0 1 1 2 3 4 4
2 3 3 3 3 3 3 2 1 1 1 1 2 3 3 3 4 6 7 6 5 4 4 4 4 5 4 2 1 0 0 1 1 1 1 0 1 2 3 6 8 7 6

GEFSMW_con_probscp_096.txt.gz
Probability
32 32 31 30 33 38 40 38 37 37 35 30 24 20 16 12 7 2 0 0 0 0 0 0 0 0 0 0 0 0 0 0 0 0 0 0 0 0 0 0 0 0 0
29 27 26 27 30 33 35 33 33 35 33 27 24 20 16 10 5 1 0 0 0 0 0 0 0 0 0 0 0 0 0 0 0 0 0 0 0 0 0 0 0 0 0
22 20 18 20 23 23 25 25 25 28 27 24 21 17 13 7 2 0 0 0 0 0 0 0 0 0 0 0 0 0 0 0 0 0 0 0 0 0 0 0 0 0 0
18 16 14 14 15 15 17 19 20 22 23 20 18 14 8 4 2 0 0 0 0 0 0 0 0 0 0 0 0 0 0 0 0 0 0 0 0 0 0 0 0 0 0
16 14 12 10 9 10 14 18 20 21 20 18 16 12 6 3 2 1 1 1 0 0 0 0 1 1 0 0 0 0 1 1 0 0 0 0 0 0 0 0 0 0 0
12 11 10 8 7 8 13 18 21 21 19 16 15 10 7 5 4 4 4 2 1 0 1 2 3 2 1 0 0 1 2 2 1 0 0 0 0 0 0 0 0 0 0
9 9 10 9 9 11 16 22 24 23 20 15 13 11 9 8 7 6 6 3 1 1 3 4 5 4 2 1 1 2 3 3 1 1 0 0 0 0 0 0 0 0 0
7 9 10 11 13 15 22 28 28 26 22 17 16 15 12 8 6 6 5 2 0 2 5 6 5 4 3 2 2 3 3 3 3 2 1 1 0 0 0 0 0 0 0
5 7 10 12 16 20 27 32 32 30 26 21 20 18 12 7 5 5 3 1 1 3 5 6 5 4 4 3 3 3 3 3 3 3 3 2 1 0 0 0 0 0 0
3 6 10 13 17 23 29 33 34 33 29 24 20 15 11 8 8 9 7 6 6 7 8 7 6 5 5 4 4 3 3 3 3 3 3 3 1 1 1 1 1 1 1
2 6 11 15 18 23 29 34 36 35 30 25 21 18 17 16 17 18 19 16 14 13 13 11 8 7 6 7 6 5 3 3 3 3 3 3 3 3 3 2 2 3 3
3 7 14 20 23 25 29 33 36 36 32 28 28 29 30 29 28 30 31 28 24 21 18 14 11 9 9 11 10 7 4 3 3 3 3 4 4 5 4 4 4 4 5
8 13 24 31 33 35 36 37 38 37 33 31 32 36 39 38 39 41 42 40 37 31 25 20 15 12 12 13 12 10 6 5 4 4 4 5 6 7 7 6 6 6 6
15 22 35 42 45 46 47 44 41 38 34 33 36 40 44 46 46 48 49 49 45 39 33 27 21 17 14 13 12 11 9 8 7 7 7 6 6 8 9 8 7 7 7
18 29 41 49 52 53 51 46 41 39 38 39 42 47 50 51 51 50 51 52 48 42 38 33 27 21 15 10 9 9 10 10 12 14 13 9 5 6 7 6 6 7 7
22 33 47 56 61 61 56 50 46 45 48 49 50 54 56 56 53 51 52 53 50 44 40 37 32 24 14 6 4 6 9 12 16 19 19 13 5 3 4 3 3 4 5
33 40 53 64 71 70 66 62 59 58 60 59 59 61 64 62 58 55 54 55 55 51 46 43 39 31 18 5 0 2 6 10 14 18 22 17 9 6 5 4 3 4 4
45 50 58 69 76 75 73 72 69 68 68 66 65 68 70 70 65 60 58 59 59 58 53 49 45 38 24 8 0 0 3 6 9 13 17 19 16 11 7 5 7 8 7
47 51 58 68 76 75 75 75 73 72 70 68 68 70 72 72 69 65 63 63 63 62 58 54 50 44 31 13 1 0 1 4 6 8 9 13 14 10 4 4 8 10 9
40 44 50 59 65 68 71 72 71 68 66 64 63 64 66 66 65 64 62 62 62 60 56 54 52 48 37 17 3 0 1 4 7 7 5 5 5 3 1 2 5 6 6
32 35 39 43 47 51 56 58 58 56 54 52 52 54 55 54 55 56 56 55 54 51 49 48 48 47 38 21 6 0 1 4 7 7 4 1 0 0 0 1 2 3 3
23 25 28 30 30 32 36 37 37 37 37 38 41 43 43 41 42 46 48 48 44 40 39 39 39 39 34 21 7 0 0 2 5 5 3 1 0 0 0 0 0 1 1
15 17 19 20 19 20 20 21 21 23 25 27 29 30 30 30 31 35 39 39 36 32 30 28 27 26 24 17 7 2 0 0 1 1 1 0 0 0 0 0 0 0 0
12 13 13 13 13 13 13 13 13 15 17 19 19 19 19 20 23 26 28 27 24 21 20 18 17 15 13 11 7 3 1 0 0 0 0 1 1 1 0 0 0 1 1
12 11 10 9 8 8 9 9 9 9 11 13 13 12 11 13 16 17 17 14 11 9 9 9 9 8 6 4 3 2 1 1 0 0 0 1 2 2 1 0 1 2 1
11 10 8 7 5 5 6 7 7 7 8 8 9 8 8 10 11 11 10 7 4 2 2 3 4 4 2 1 0 1 1 1 0 0 0 1 1 1 1 0 1 2 2

GEFSMW_con_probscp_102.txt.gz
Probability
24 19 16 16 16 17 18 17 15 11 8 7 6 6 5 3 2 1 0 0 0 0 0 0 0 0 0 0 0 0 0 0 0 0 0 0 0 0 0 0 0 0 0
23 20 16 15 15 16 15 14 12 9 7 6 5 5 3 1 1 0 0 0 0 0 0 0 0 0 0 0 0 0 0 0 0 0 0 0 0 0 0 0 0 0 0
21 19 15 13 12 12 12 10 8 6 5 5 5 3 1 0 0 0 0 0 0 0 0 0 0 0 0 0 0 0 0 0 0 0 0 0 0 0 0 0 0 0 0
17 15 12 10 9 10 11 10 8 5 4 5 5 2 0 0 0 0 0 0 0 0 0 0 0 0 0 0 0 0 0 0 0 0 0 0 0 0 0 0 0 0 0
12 10 8 8 9 10 12 12 10 6 5 5 5 2 0 0 0 0 0 0 0 0 0 0 0 0 0 0 0 0 0 0 0 0 0 0 0 0 0 0 0 0 0
7 7 6 7 9 11 12 12 10 8 6 6 6 3 1 1 0 0 0 0 0 0 0 0 0 0 0 0 0 0 0 0 0 0 0 0 0 0 0 0 0 0 0
6 6 6 7 9 10 10 9 8 7 7 6 6 5 3 2 1 0 0 0 0 0 0 0 0 0 0 0 0 0 0 0 0 0 0 0 0 0 0 0 0 0 0
6 5 5 6 7 8 8 8 7 7 7 7 7 6 4 3 2 1 1 1 0 0 0 0 0 0 0 0 0 0 0 0 0 0 0 0 0 0 0 0 0 0 0
5 4 5 6 7 8 9 10 10 8 8 8 7 5 4 3 3 3 2 1 0 0 0 0 0 0 0 0 0 0 0 0 0 0 0 0 0 0 0 0 0 0 0
3 3 4 6 8 10 11 12 12 10 8 7 6 4 3 3 3 3 2 1 0 0 0 0 0 0 0 0 0 0 0 0 0 0 0 0 0 0 0 0 0 0 0
1 2 3 5 8 10 11 12 12 9 6 4 3 3 2 3 3 3 1 0 0 0 0 0 0 0 0 0 0 0 0 0 0 0 0 0 0 0 0 0 0 0 0
1 1 3 5 7 8 10 13 12 10 7 3 1 1 1 1 2 2 1 0 0 0 0 0 0 0 0 0 0 0 0 0 0 0 0 0 0 0 0 0 0 0 0
0 1 2 4 6 8 11 14 16 14 10 6 3 2 1 1 1 1 0 0 0 0 0 0 0 0 0 0 0 0 0 0 0 0 0 0 0 0 0 0 0 0 0
0 0 0 2 6 10 14 17 19 18 15 11 9 7 5 3 2 0 0 1 0 0 0 0 0 0 0 0 0 0 0 0 0 0 0 0 0 0 0 0 0 0 0
0 0 0 2 7 12 16 19 20 20 20 18 17 14 10 7 4 1 2 3 2 0 0 0 0 0 0 0 0 0 0 0 0 0 0 0 0 0 0 0 0 0 0
0 0 0 3 7 11 16 20 22 23 24 26 24 19 14 9 4 2 2 4 4 2 1 1 1 1 0 0 0 0 0 0 0 0 0 0 0 0 0 0 0 0 0
0 0 1 4 7 10 15 22 26 26 26 26 24 21 15 10 6 4 3 3 5 6 4 2 2 2 1 0 0 0 0 0 0 0 0 0 0 0 0 0 0 0 0
1 1 2 3 4 7 14 22 26 27 25 21 19 18 17 13 10 7 6 6 8 10 9 6 4 2 1 0 0 0 0 0 0 0 0 0 0 0 0 0 0 0 0
1 1 2 2 3 6 12 18 20 22 20 16 14 17 18 17 15 12 10 11 12 12 11 10 6 3 1 0 0 0 0 0 0 0 0 0 0 0 0 0 0 0 0
1 0 0 1 2 5 9 11 13 15 16 15 15 17 18 19 18 15 11 12 13 10 9 9 6 3 1 0 0 0 0 0 0 0 0 0 0 0 0 0 0 0 0
0 0 0 0 1 3 5 6 8 11 14 15 16 15 15 16 16 14 10 9 9 8 6 6 4 2 1 0 0 0 0 0 0 0 0 0 0 0 0 0 0 0 0
1 0 0 0 0 1 2 4 6 7 9 12 12 11 9 10 10 9 7 6 6 6 5 5 4 1 0 0 0 0 0 0 0 0 0 0 0 0 0 0 0 0 0
1 0 0 0 0 0 1 2 3 3 4 5 6 5 5 5 5 5 5 4 4 5 6 5 4 1 0 0 0 0 0 0 0 0 0 0 0 0 0 0 0 0 0
1 0 0 0 0 0 1 1 1 1 1 1 2 2 3 3 3 3 3 3 3 3 3 3 2 1 0 0 0 0 0 0 0 0 0 0 0 0 0 0 0 0 0
0 0 0 0 0 0 0 0 0 0 0 0 0 1 1 2 2 1 1 1 1 1 1 0 0 0 1 0 0 0 0 0 0 0 0 0 0 0 0 0 0 0 0
0 0 0 0 0 0 0 0 0 0 0 0 0 0 0 1 1 0 0 0 0 0 0 0 0 0 1 0 0 0 0 0 0 0 0 0 0 0 0 0 0 0 0

GEFSMW_con_probscp_108.txt.gz
Probability
20 20 19 18 15 14 13 11 9 7 8 8 7 6 6 5 2 0 0 0 0 0 0 0 0 0 0 0 0 0 0 0 0 0 0 0 0 0 0 0 0 0 0
21 20 17 15 13 12 12 11 9 8 7 8 7 6 5 3 2 0 0 0 0 0 0 0 0 0 0 0 0 0 0 0 0 0 0 0 0 0 0 0 0 0 0
22 19 15 12 10 10 10 9 8 8 7 7 7 6 4 2 1 0 0 0 0 0 0 0 0 0 0 0 0 0 0 0 0 0 0 0 0 0 0 0 0 0 0
19 17 13 9 7 7 7 6 5 5 6 6 6 6 4 2 1 0 0 0 0 0 0 0 0 0 0 0 0 0 0 0 0 0 0 0 0 0 0 0 0 0 0
13 13 11 7 4 4 4 3 3 3 4 4 4 5 4 3 2 1 0 0 0 0 0 0 0 0 0 0 0 0 0 0 0 0 0 0 0 0 0 0 0 0 0
7 8 8 6 4 4 3 3 4 3 3 3 3 4 3 3 3 2 1 0 0 0 0 0 0 0 0 0 0 0 0 0 0 0 0 0 0 0 0 0 0 0 0
4 5 6 7 7 6 4 4 4 4 3 3 3 3 3 3 3 3 2 1 0 0 0 0 0 0 0 0 0 0 0 0 0 0 0 0 0 0 0 0 0 0 0
2 3 5 7 7 6 5 4 5 4 3 3 3 3 3 3 3 3 3 2 1 0 0 0 0 0 0 0 0 0 0 0 0 0 0 0 0 0 0 0 0 0 0
1 2 4 5 5 5 5 5 5 4 4 3 3 3 3 3 3 3 3 3 2 1 0 0 0 0 0 0 0 0 0 0 0 0 0 0 0 0 0 0 0 0 0
0 1 2 2 2 3 4 5 5 4 4 3 2 2 2 3 3 3 3 3 3 2 1 0 0 0 0 0 0 0 0 0 0 0 0 0 0 0 0 0 0 0 0
0 0 0 1 1 1 2 4 6 6 5 4 2 1 1 1 3 3 3 3 3 2 1 0 0 0 0 0 0 0 0 0 0 0 0 0 0 0 0 0 0 0 0
0 0 0 0 0 0 1 4 6 6 6 6 4 2 0 1 2 3 2 2 2 2 1 0 0 0 0 0 0 0 0 0 0 0 0 0 0 0 0 0 0 0 0
0 0 0 0 0 0 1 3 5 6 7 7 6 3 1 1 1 1 1 0 1 1 0 0 0 0 0 0 0 0 0 0 0 0 0 0 0 0 0 0 0 0 0
0 0 0 0 0 0 0 1 3 6 7 7 7 5 2 0 0 0 0 1 1 1 1 0 0 0 0 0 0 0 0 0 0 0 0 0 0 0 0 0 0 0 0
1 0 0 0 0 0 0 0 2 5 7 7 7 6 3 1 0 0 1 2 2 2 2 1 0 0 0 0 0 0 0 0 0 0 0 0 0 0 0 0 0 0 0
2 1 1 1 0 0 0 0 2 5 7 8 8 7 5 3 1 1 2 3 3 3 2 1 0 0 0 0 0 0 0 0 0 0 0 0 0 0 0 0 0 0 0
3 2 2 1 0 0 0 0 2 5 8 9 9 8 6 4 2 2 3 3 3 2 1 0 0 0 0 0 0 0 0 0 0 0 0 0 0 0 0 0 0 0 0
2 2 1 1 0 0 1 1 1 4 7 10 10 9 7 4 4 4 4 3 3 1 0 0 0 0 0 0 0 0 0 0 0 0 0 0 0 0 0 0 0 0 0
1 1 1 1 1 0 1 1 3 4 6 7 8 7 7 6 5 5 4 4 3 1 0 0 0 0 0 0 0 0 0 0 0 0 0 0 0 0 0 0 0 0 0
0 1 2 2 2 1 1 2 4 5 4 3 3 4 5 6 7 6 5 3 2 1 1 0 0 0 0 0 0 0 0 0 0 0 0 0 0 0 0 0 0 0 0
0 1 2 2 2 1 1 2 3 4 2 1 0 1 2 3 5 5 4 3 2 1 1 0 0 0 0 0 0 0 0 0 0 0 0 0 0 0 0 0 0 0 0
0 0 1 1 1 0 0 1 1 1 1 0 0 0 0 1 2 3 3 3 3 2 1 0 0 0 0 0 0 0 0 0 0 0 0 0 0 0 0 0 0 0 0
0 0 0 0 0 0 0 0 0 0 0 0 0 0 0 0 1 2 3 3 3 3 1 1 0 0 0 0 0 0 0 0 0 0 0 0 0 0 0 0 0 0 0
0 0 0 0 0 0 0 0 0 0 0 0 0 0 0 0 0 1 2 2 2 2 2 1 0 0 0 0 0 0 0 0 0 0 0 0 0 0 0 0 0 0 0
0 0 0 0 0 0 0 0 0 0 0 0 0 0 0 0 0 0 1 1 1 1 1 1 0 0 0 0 0 0 0 0 0 0 0 0 0 0 0 0 0 0 0
0 0 0 0 0 0 0 0 0 0 0 0 0 0 0 0 0 0 0 0 0 0 0 0 0 0 0 0 0 0 0 0 0 0 0 0 0 0 0 0 0 0 0

GEFSMW_con_probscp_114.txt.gz
Probability
28 28 24 20 16 15 15 14 14 16 21 25 26 26 22 16 10 6 4 3 1 1 1 0 0 0 0 0 0 0 0 0 0 0 0 0 0 0 0 0 0 0 0
25 25 23 19 16 14 12 11 12 15 18 23 27 26 21 14 9 6 5 3 1 0 0 0 0 0 0 0 0 0 0 0 0 0 0 0 0 0 0 0 0 0 0
20 21 19 18 16 14 11 11 12 14 16 20 23 22 18 13 9 8 7 4 1 0 0 0 0 0 0 0 0 0 0 0 0 0 0 0 0 0 0 0 0 0 0
15 16 15 14 14 12 12 13 13 14 16 17 16 15 15 13 11 9 6 4 2 1 0 0 0 0 0 0 0 0 0 0 0 0 0 0 0 0 0 0 0 0 0
11 12 12 10 7 6 8 10 12 13 15 14 12 11 12 13 11 8 6 3 2 1 0 0 0 0 0 0 0 0 0 0 0 0 0 0 0 0 0 0 0 0 0
7 8 9 7 4 3 5 7 9 11 10 9 9 9 11 12 11 9 6 4 2 1 1 1 0 0 0 0 0 0 0 0 0 0 0 0 0 0 0 0 0 0 0
4 6 7 7 7 7 8 8 9 8 6 5 6 7 9 10 10 9 7 5 3 2 2 2 1 0 0 0 0 0 0 0 0 0 0 0 0 0 0 0 0 0 0
4 4 6 7 8 9 11 11 11 8 5 4 4 5 6 7 8 8 8 7 5 4 3 3 2 1 0 1 1 0 0 0 0 0 0 0 0 0 0 0 0 0 0
3 4 5 6 7 8 10 11 11 10 7 6 5 4 4 5 6 7 7 8 6 4 3 3 3 2 2 2 2 1 0 0 0 0 0 0 1 1 1 1 1 1 0
1 2 3 5 6 7 7 7 8 9 8 8 7 5 4 4 3 5 6 7 6 5 4 3 3 3 3 4 3 1 0 0 0 0 0 1 2 2 2 2 2 1 1
0 1 2 4 6 6 5 4 5 6 7 8 8 6 5 5 4 5 7 7 7 6 6 5 5 4 4 5 5 3 1 1 0 0 0 1 2 2 2 1 1 1 2
2 2 3 4 6 6 4 2 2 4 6 8 8 7 7 8 6 7 8 9 9 9 8 8 8 7 6 7 7 6 4 2 1 0 0 0 1 1 2 1 1 2 2
9 6 4 5 5 5 3 1 1 2 4 7 9 10 10 10 9 9 9 10 11 11 11 12 11 8 6 6 6 6 5 4 2 1 1 0 1 2 3 3 3 3 2
19 15 10 7 5 4 3 2 1 1 3 6 11 12 13 12 11 11 11 12 13 13 15 16 15 12 8 7 7 8 8 7 6 4 3 2 2 2 2 3 6 6 5
25 22 19 14 9 6 4 3 3 4 5 8 12 14 15 14 13 13 15 17 18 17 18 20 20 18 12 8 8 10 11 12 12 11 9 6 3 2 1 2 6 8 7
23 22 22 20 14 10 7 4 4 5 8 10 13 16 18 17 16 16 20 24 24 23 22 23 23 20 12 6 4 7 11 14 17 18 17 12 6 2 1 2 3 4 4
22 22 21 20 17 13 10 7 6 6 7 10 13 17 19 19 19 21 25 29 29 27 26 25 23 19 12 4 0 2 5 11 17 22 23 17 9 4 3 2 1 2 2
26 24 22 20 18 16 16 14 12 11 11 12 15 16 19 22 24 26 28 30 29 27 27 27 25 23 15 5 0 0 3 8 14 19 21 18 12 6 3 3 3 3 3
25 24 23 22 21 21 21 20 19 19 17 17 17 18 20 24 28 30 30 30 29 28 27 28 29 28 19 7 1 1 3 7 12 14 15 13 9 4 2 1 1 2 3
22 21 21 23 24 25 25 24 21 19 18 17 19 22 25 28 32 36 37 36 34 31 29 28 30 29 21 8 1 1 4 7 10 11 10 7 4 2 0 0 0 1 2
19 19 20 22 25 26 28 27 22 19 16 17 19 24 27 30 32 36 39 38 36 32 28 26 26 24 17 7 1 1 3 5 7 8 7 5 2 1 0 0 0 0 1
16 15 16 18 22 25 26 24 22 19 17 18 20 23 23 23 24 26 27 29 28 26 23 21 18 15 11 4 0 0 1 1 2 4 5 3 1 0 0 0 0 0 0
12 11 11 13 17 19 19 19 18 17 17 17 18 17 14 13 14 13 14 16 17 16 15 13 11 9 7 3 1 0 0 0 0 1 1 1 0 0 0 0 0 0 0
6 6 7 8 11 12 13 14 14 14 14 13 12 10 8 6 6 5 6 7 7 6 6 6 6 6 5 3 2 1 0 0 0 0 0 0 0 1 1 0 0 0 0
2 2 3 5 6 8 8 9 10 9 9 8 6 5 3 2 1 1 1 1 1 1 1 2 3 4 3 2 1 1 0 0 0 0 0 0 0 1 1 0 0 0 0
0 0 1 3 5 6 6 6 4 4 3 3 3 2 1 1 0 0 0 0 0 0 0 1 2 2 1 1 1 1 0 0 0 0 0 0 0 1 1 0 0 0 0

GEFSMW_con_probscp_120.txt.gz
Probability
58 58 55 50 48 47 44 41 34 29 27 24 22 23 25 27 26 24 21 17 15 11 7 6 6 6 4 1 0 0 0 0 0 0 0 0 0 0 0 0 0 1 1
59 58 53 47 46 44 41 37 33 30 28 25 23 24 27 26 23 22 21 17 12 8 6 6 6 5 3 1 0 0 0 0 0 0 0 0 0 0 0 0 0 0 1
58 56 49 43 42 40 36 33 32 31 29 26 24 25 28 24 18 19 22 18 11 6 5 6 6 4 2 1 0 0 0 0 0 0 0 0 0 0 0 0 0 0 0
57 53 46 41 38 34 31 30 31 31 28 25 24 25 25 21 16 17 22 20 13 9 8 8 8 5 3 1 0 0 0 0 0 0 0 0 0 0 0 0 0 0 0
54 50 44 39 34 28 26 27 28 28 24 22 23 24 22 20 17 18 20 20 17 13 11 12 10 7 5 2 1 1 0 0 0 0 0 0 0 0 0 0 0 0 0
45 43 38 33 27 23 23 24 26 25 22 19 20 21 21 20 18 19 19 18 17 15 13 13 13 10 6 3 1 0 0 0 0 0 0 0 0 0 0 0 0 0 0
32 33 32 28 23 20 20 23 25 26 22 19 17 17 20 22 20 17 16 15 14 14 13 12 12 10 7 3 1 0 0 0 0 0 0 0 0 0 0 0 0 0 0
24 25 28 27 23 19 19 21 24 25 23 19 16 16 17 19 18 15 13 13 12 12 13 13 12 9 6 4 2 2 1 1 0 0 0 0 0 0 0 0 0 0 0
19 22 26 25 22 20 20 20 21 21 21 19 15 13 13 13 13 12 11 12 12 12 14 15 13 10 7 5 4 3 3 2 0 0 0 0 0 0 0 0 0 0 0
18 22 24 21 19 19 20 21 20 20 19 19 16 13 11 11 11 12 12 12 12 13 14 15 14 11 8 7 6 5 4 3 3 2 1 0 0 1 0 0 0 0 0
22 25 25 21 18 18 19 20 19 18 18 18 16 14 13 12 11 13 13 12 12 13 14 15 15 13 10 10 9 6 5 5 6 5 3 2 1 2 2 1 2 2 2
27 29 29 24 19 17 18 18 16 14 14 14 14 15 14 13 11 11 12 12 12 14 16 17 17 15 13 14 13 9 6 6 6 6 5 3 3 5 6 5 5 4 4
30 32 33 29 22 18 19 18 14 11 11 12 14 15 15 13 11 9 9 12 15 17 18 18 17 17 17 19 17 11 7 6 6 7 7 5 6 9 10 9 7 6 5
32 35 38 36 29 24 21 18 13 11 11 13 15 17 16 15 12 9 8 13 18 20 20 19 18 18 18 18 17 13 9 7 9 10 8 7 7 10 11 9 8 6 5
35 39 43 43 39 33 26 20 17 15 16 18 18 19 19 18 15 11 10 15 20 22 22 21 20 18 15 13 13 13 12 12 14 13 11 8 7 7 6 6 5 5 5
42 44 47 50 49 43 35 29 25 23 23 22 20 19 20 20 18 17 18 21 25 26 25 24 21 17 12 7 6 9 13 17 19 20 17 12 6 4 3 2 2 2 3
51 50 51 54 55 51 46 41 35 30 26 23 20 19 18 20 22 23 25 29 31 31 28 26 23 19 12 5 2 5 12 18 23 24 23 17 9 5 5 3 1 1 1
57 56 56 57 57 55 53 48 43 36 29 24 21 19 19 20 23 25 27 31 32 31 30 29 27 23 13 5 1 2 9 15 19 22 23 20 13 8 6 4 4 3 2
59 58 58 58 57 56 54 51 46 41 35 29 24 23 23 25 26 25 27 30 32 31 30 30 29 25 15 6 1 2 6 11 14 15 17 16 12 6 3 4 6 7 5
54 54 54 54 54 55 54 51 48 45 40 36 32 30 30 30 30 30 31 33 34 32 28 27 26 23 16 7 1 1 5 8 10 10 9 8 5 2 1 2 5 6 5
44 45 46 48 49 51 51 50 47 44 41 39 37 34 32 32 33 35 35 36 34 30 26 23 22 19 13 6 1 1 3 6 6 6 5 3 1 0 0 1 2 2 2
33 34 36 40 42 44 44 43 41 38 36 36 34 31 27 26 29 32 32 31 28 26 24 22 19 16 11 5 1 0 1 2 3 3 3 3 1 0 0 0 0 0 0
21 22 24 26 29 32 32 32 31 30 29 28 27 24 19 18 20 22 22 21 19 17 18 17 15 12 8 4 1 0 0 0 1 1 1 1 0 0 0 0 0 0 0
15 15 15 15 17 19 21 22 23 22 21 21 20 18 14 11 10 10 10 10 9 8 9 9 8 6 5 3 1 0 0 0 0 0 0 0 0 0 0 0 0 0 0
13 12 11 11 11 13 14 15 16 16 15 14 13 11 8 5 3 3 3 3 2 2 2 3 2 2 2 1 0 0 0 0 0 0 0 0 0 0 0 0 0 0 0
9 10 10 10 10 11 11 12 13 13 12 11 9 6 3 1 0 0 0 0 0 0 0 0 0 0 1 0 0 0 0 0 0 0 0 0 0 0 0 0 0 0 0

GEFSMW_con_probscp_126.txt.gz
Probability
41 45 47 46 45 43 35 25 18 15 12 7 4 2 2 3 2 2 3 3 2 1 0 0 0 0 0 0 0 0 0 0 0 0 0 0 0 0 0 0 0 0 0
44 46 46 44 43 40 32 23 18 16 13 9 5 2 1 2 2 2 2 2 2 2 1 0 0 0 0 0 0 0 0 0 0 0 0 0 0 0 0 0 0 0 0
47 45 41 38 37 34 28 21 18 17 15 11 7 4 2 1 1 2 2 1 1 2 1 0 0 0 0 0 0 0 0 0 0 0 0 0 0 0 0 0 0 0 0
44 40 35 32 31 29 25 19 17 17 15 11 8 5 2 0 1 3 3 1 0 1 1 0 0 0 0 0 0 0 0 0 0 0 0 0 0 0 0 0 0 0 0
35 32 30 28 27 26 23 18 17 15 12 8 6 4 2 0 1 4 5 3 1 1 1 0 0 0 0 0 0 0 0 0 0 0 0 0 0 0 0 0 0 0 0
26 26 25 23 22 21 18 15 15 14 10 7 5 3 1 0 1 4 6 5 3 2 2 1 0 0 0 0 0 0 0 0 0 0 0 0 0 0 0 0 0 0 0
20 21 19 15 14 15 13 12 12 12 10 8 5 3 1 0 1 3 5 5 4 3 2 1 0 0 0 0 0 0 0 0 0 0 0 0 0 0 0 0 0 0 0
14 14 12 10 9 10 10 10 10 8 7 6 5 3 1 0 1 2 2 3 3 3 2 1 0 1 1 1 1 1 0 0 0 0 0 0 0 0 0 0 0 0 0
9 8 7 6 6 7 8 9 9 8 5 4 4 3 1 0 1 2 1 1 2 2 2 1 0 1 2 2 2 2 1 0 0 0 0 0 0 0 0 0 0 0 0
7 5 4 4 5 6 8 9 9 9 8 6 4 4 2 2 2 2 1 0 1 1 1 1 2 1 1 2 3 3 2 1 0 0 0 0 0 0 0 0 0 0 0
5 4 2 3 4 5 7 8 9 10 10 8 7 5 4 3 3 3 2 1 0 0 0 2 3 2 1 1 3 3 3 2 1 0 0 0 0 0 0 0 0 0 0
5 4 2 1 3 4 5 7 9 9 10 9 9 8 6 4 3 3 2 1 0 0 0 2 3 3 2 1 2 3 3 3 2 1 0 0 0 0 0 0 0 0 0
10 7 3 1 1 3 5 6 8 9 10 10 10 10 9 7 4 3 1 1 1 1 1 2 3 3 2 1 1 3 3 3 2 1 0 0 0 0 0 0 0 0 0
13 10 5 2 2 5 7 7 8 8 9 9 10 10 10 9 8 5 3 2 2 3 3 4 4 3 2 1 1 3 3 1 1 0 0 0 0 0 0 0 0 0 0
13 12 8 6 6 7 9 10 9 8 8 9 10 10 10 10 8 6 4 4 4 4 5 6 5 4 3 2 2 2 2 1 0 0 0 0 0 0 0 0 0 0 0
15 16 15 12 10 9 10 12 11 9 9 10 11 11 10 10 8 6 5 5 5 5 6 5 5 5 5 3 1 1 2 1 0 0 0 0 0 0 0 0 0 0 0
17 18 18 16 13 11 13 15 14 13 11 11 11 11 10 10 8 6 6 6 5 5 4 4 4 5 4 2 0 0 1 1 0 0 0 0 0 0 0 0 0 0 0
16 16 15 15 14 14 15 16 16 16 14 13 11 10 8 7 7 6 6 5 4 4 3 3 3 3 2 0 0 0 0 0 0 0 0 0 0 0 0 0 0 0 0
17 15 12 12 13 14 15 16 15 15 14 12 10 8 6 5 4 4 4 4 3 3 3 3 3 2 1 0 0 0 0 0 0 0 0 0 0 0 0 0 0 0 0
20 18 14 12 13 15 16 16 14 14 13 10 8 7 6 5 4 4 3 3 3 3 3 3 3 2 1 0 0 0 0 0 0 0 0 0 0 0 0 0 0 0 0
20 18 16 13 13 17 20 19 17 15 12 9 7 6 6 6 6 5 4 3 3 3 2 2 2 1 0 0 0 0 0 0 0 0 0 0 0 0 0 0 0 0 0
14 14 14 13 12 16 20 20 17 13 10 8 6 4 5 7 6 4 3 2 2 1 1 1 1 0 0 0 0 0 0 0 0 0 0 0 0 0 0 0 0 0 0
9 10 10 10 10 12 15 14 10 7 5 4 3 3 4 5 5 2 1 1 1 0 0 0 0 0 0 0 0 0 0 0 0 0 0 0 0 0 0 0 0 0 0
6 7 7 7 7 7 7 6 3 2 1 1 1 1 2 4 3 2 0 0 0 0 0 0 0 0 0 0 0 0 0 0 0 0 0 0 0 0 0 0 0 0 0
5 5 5 5 5 4 3 2 1 1 0 0 0 0 1 2 2 1 0 0 0 0 0 0 0 0 0 0 0 0 0 0 0 0 0 0 0 0 0 0 0 0 0
4 5 5 4 2 2 1 1 1 1 0 0 0 0 0 1 1 0 0 0 0 0 0 0 0 0 0 0 0 0 0 0 0 0 0 0 0 0 0 0 0 0 0

GEFSMW_con_probscp_132.txt.gz
Probability
30 32 35 38 37 30 21 16 13 10 7 6 4 2 1 0 1 2 2 2 1 0 0 0 0 0 0 0 0 0 0 0 0 0 0 0 0 0 0 0 0 0 0
30 31 33 34 33 29 21 14 11 8 6 5 3 1 1 0 0 1 1 1 0 0 0 0 0 0 0 0 0 0 0 0 0 0 0 0 0 0 0 0 0 0 0
29 27 27 28 28 25 18 12 10 8 6 4 3 2 2 1 0 0 0 0 0 0 0 0 0 0 0 0 0 0 0 0 0 0 0 0 0 0 0 0 0 0 0
23 20 19 21 21 19 14 8 8 9 8 6 4 3 2 1 0 0 0 0 0 0 0 0 0 0 0 0 0 0 0 0 0 0 0 0 0 0 0 0 0 0 0
14 13 13 14 13 11 9 5 4 6 8 7 5 4 2 1 0 0 0 0 1 1 0 0 0 0 0 0 0 0 0 0 0 0 0 0 0 0 0 0 0 0 0
9 10 10 10 8 7 4 3 2 3 4 6 6 4 3 1 0 0 0 0 1 1 0 0 0 0 0 0 0 0 0 0 0 0 0 0 0 0 0 0 0 0 0
8 8 8 8 7 6 3 2 1 1 1 4 6 4 2 1 0 0 0 0 1 1 0 0 0 0 0 0 0 0 0 0 0 0 0 0 0 0 0 0 0 0 0
5 5 5 6 7 6 4 3 2 1 1 3 4 3 1 1 0 0 0 0 0 0 0 0 0 0 0 0 0 0 0 0 0 0 0 0 0 0 0 0 0 0 0
2 2 3 4 6 6 4 4 3 3 3 2 2 1 0 0 0 0 0 0 0 0 0 0 0 0 0 0 0 0 0 0 0 0 0 0 0 0 0 0 0 0 0
1 2 2 3 3 3 2 3 3 4 4 3 1 0 0 0 0 0 0 0 0 0 0 0 0 0 0 0 0 0 0 0 0 0 0 0 0 0 0 0 0 0 0
3 3 3 2 1 1 1 2 3 4 4 4 2 1 0 0 0 0 0 0 0 0 0 0 0 0 0 0 0 0 0 0 0 0 0 0 0 0 0 0 0 0 0
5 4 3 2 0 1 2 2 2 3 5 5 3 2 1 1 0 0 0 0 0 0 0 0 0 0 0 0 0 0 0 0 1 1 1 0 0 0 0 0 0 0 0
5 4 3 2 1 2 3 3 3 3 5 5 4 4 3 2 1 1 0 0 0 0 0 0 0 0 0 0 0 0 0 0 1 2 2 1 0 0 0 0 0 0 0
5 5 4 3 2 3 3 3 2 3 4 6 6 6 5 4 3 3 1 1 0 0 0 0 0 0 1 1 1 1 0 0 1 2 2 1 0 0 0 0 0 0 0
5 5 3 3 3 3 3 1 1 3 4 6 7 7 6 6 6 5 4 2 1 0 0 0 0 0 0 1 1 1 0 0 0 1 1 0 0 0 0 0 0 0 0
4 4 2 1 2 2 2 1 0 1 3 5 7 7 6 6 6 7 6 4 3 1 0 0 0 0 0 0 1 1 0 0 0 0 0 0 0 0 0 0 0 0 0
3 3 1 0 1 1 1 0 0 0 2 4 7 8 7 6 7 8 7 6 5 3 1 1 0 0 0 0 0 0 0 0 0 0 0 0 0 0 0 0 0 0 0
2 2 1 1 0 0 0 1 1 1 2 4 6 8 8 6 7 7 7 7 6 5 3 2 2 2 1 0 0 0 0 0 0 0 0 0 0 0 0 0 0 0 0
2 2 2 2 1 0 1 3 4 3 2 4 6 7 7 7 6 6 6 6 6 6 4 3 2 2 2 0 0 0 0 0 0 0 0 0 0 0 0 0 0 0 0
3 3 3 3 2 1 2 6 7 4 3 4 6 7 7 6 6 6 5 4 4 5 4 2 2 2 1 0 0 0 0 0 0 0 0 0 0 0 0 0 0 0 0
4 4 3 3 3 2 3 6 8 6 4 5 7 7 7 6 6 6 6 4 3 3 2 1 0 0 0 0 0 0 0 0 0 0 0 0 0 0 0 0 0 0 0
3 4 3 3 3 4 5 6 7 7 6 7 8 7 7 6 6 6 6 5 3 1 0 0 0 0 0 0 0 0 0 0 1 0 0 0 0 0 0 0 0 0 0
2 2 2 2 5 6 6 6 6 5 5 6 7 6 6 6 6 6 5 3 1 0 0 0 0 0 0 0 0 0 0 0 0 0 0 0 0 0 0 0 0 0 0
0 0 1 3 5 6 5 4 3 3 3 3 3 3 3 3 3 3 3 1 0 0 0 0 0 0 0 0 0 0 0 0 0 0 0 0 0 0 0 0 0 0 0
1 1 2 4 5 4 3 2 1 1 1 0 1 1 1 1 1 1 1 0 0 0 0 0 0 0 0 0 0 0 0 0 0 0 0 0 0 0 0 0 0 0 0
2 2 3 4 4 4 2 1 0 0 0 0 0 0 0 0 0 0 0 0 0 0 0 0 0 0 0 0 0 0 0 0 0 0 0 0 0 0 0 0 0 0 0

GEFSMW_con_probscp_138.txt.gz
Probability
31 37 41 41 42 43 42 40 38 33 29 24 16 12 10 8 6 6 6 6 5 4 3 1 0 0 0 0 0 0 0 0 0 0 0 0 0 0 0 0 0 0 0
35 38 39 39 39 39 38 37 35 32 27 22 17 14 11 9 7 6 6 6 5 5 4 2 1 0 0 0 0 0 0 0 0 0 0 0 0 0 0 0 0 0 0
31 34 37 39 36 32 29 29 28 26 23 20 18 15 12 10 7 6 6 7 6 6 5 4 1 0 0 0 0 0 0 0 0 0 0 0 0 0 0 0 0 0 0
20 26 33 37 35 25 19 20 20 19 18 18 17 13 10 9 6 5 7 8 7 6 6 5 3 2 0 0 0 0 0 0 0 0 0 0 0 0 0 0 0 0 0
14 19 27 32 30 20 13 14 14 14 14 14 14 12 9 8 6 5 6 8 9 8 6 6 6 4 2 1 1 2 1 1 0 1 1 0 0 0 0 0 0 0 0
15 17 21 25 25 18 13 12 11 10 9 10 11 11 10 9 7 6 5 6 9 9 7 6 7 7 5 3 2 3 2 1 1 2 1 0 0 0 0 0 0 0 0
16 16 16 18 19 17 14 12 10 7 6 6 8 10 11 10 8 7 5 5 6 8 8 7 7 7 6 4 3 3 3 2 1 1 1 1 0 0 0 0 0 0 0
13 12 12 12 12 11 10 9 8 7 6 6 6 9 9 9 7 7 6 6 6 7 7 8 7 6 5 4 4 3 2 1 1 1 2 2 1 0 0 0 0 0 0
10 9 9 9 8 6 5 6 7 8 8 8 7 7 7 6 6 6 6 7 7 7 7 7 6 6 6 6 6 4 3 1 0 1 3 3 2 1 0 0 0 0 0
8 7 7 8 7 5 5 6 8 9 10 8 6 5 5 5 5 5 5 6 6 7 7 7 7 8 9 9 8 6 4 3 2 2 4 4 3 2 1 0 0 0 1
6 6 5 5 6 5 6 7 8 9 9 7 5 4 4 4 3 3 3 5 6 6 5 7 9 10 10 10 9 8 7 6 4 2 2 3 3 3 3 1 0 1 2
7 7 5 3 3 4 6 6 6 7 8 7 5 5 5 3 3 3 2 4 5 6 5 6 9 10 10 9 9 9 8 7 5 4 2 2 3 4 4 3 2 3 4
11 11 10 7 5 5 5 5 5 6 8 8 8 8 7 5 4 3 4 4 4 4 5 7 9 10 11 10 10 10 8 6 5 4 4 4 4 5 5 4 4 4 4
15 16 16 15 12 9 6 4 3 4 6 8 9 10 10 7 5 5 6 6 6 5 6 7 9 12 14 13 13 12 9 7 5 4 4 5 5 5 4 5 5 5 5
19 21 21 20 18 13 9 5 3 3 4 5 7 8 9 9 8 7 8 8 9 9 8 7 8 11 12 11 12 13 12 10 7 5 4 4 3 2 2 3 4 4 3
22 22 21 19 16 12 10 7 5 4 4 4 4 6 8 10 11 12 10 10 12 13 11 8 8 9 7 5 6 10 12 12 9 7 5 4 2 1 1 1 1 1 1
25 23 19 15 11 9 10 9 8 7 7 7 6 6 8 10 12 14 14 14 15 16 15 11 10 9 5 1 1 4 8 10 9 8 8 6 3 2 2 1 1 1 0
25 23 20 16 12 9 9 10 11 11 11 11 10 10 11 11 12 16 18 18 19 20 19 15 12 10 6 1 0 1 4 6 7 7 7 6 5 3 2 2 2 1 1
22 22 22 21 17 11 8 10 11 12 13 14 15 16 17 17 17 19 21 20 21 21 20 16 13 10 5 1 0 1 3 4 3 3 3 3 3 1 1 2 2 1 0
21 21 22 24 21 15 11 11 12 13 14 15 16 19 22 22 23 23 22 20 20 21 19 15 12 10 5 1 0 1 3 2 1 1 2 2 1 0 0 1 1 1 1
20 20 21 23 22 19 17 16 16 16 15 16 18 20 21 23 24 24 23 21 20 20 17 13 11 9 5 1 0 1 2 1 0 1 2 2 1 0 0 0 1 2 2
16 17 18 20 20 19 18 18 18 18 16 17 19 22 22 23 24 24 24 22 20 17 13 10 8 7 5 1 0 0 1 0 0 1 2 2 1 0 0 0 1 1 1
12 12 13 14 15 14 14 14 15 16 17 17 19 22 23 21 20 20 20 19 17 12 9 7 6 6 4 2 0 0 0 0 0 0 1 1 0 0 0 0 0 0 0
8 8 8 7 8 8 10 11 12 14 16 16 17 18 18 15 12 11 12 12 10 8 6 6 6 5 4 2 1 0 0 0 0 0 0 0 0 0 0 0 0 0 0
6 6 5 4 4 5 7 9 10 11 13 13 12 12 10 7 6 5 5 5 6 5 5 5 5 4 3 2 1 0 0 0 0 0 0 0 0 0 0 0 0 0 0
4 4 4 4 3 4 5 7 8 8 9 10 10 8 4 3 2 3 3 3 4 4 4 4 4 4 3 1 0 0 0 0 0 0 0 0 0 0 0 0 0 0 0